| time (UTC) | temp C | wind direction | speed KPH | gust KPH | rain 1hr cm | rain 24hr cm | rain mn cm | humidity % | barometer mb |
| 20260507040011 | 12 | 90 | 0.0 | 9.7 | 0.00 | 0.00 | 0.00 | 44 | 981.8 |
| 20260507034513 | 12 | 70 | 4.8 | 11.3 | 0.00 | 0.00 | 0.00 | 43 | 981.6 |
| 20260507033013 | 13 | 92 | 8.0 | 12.9 | 0.00 | 0.00 | 0.00 | 41 | 981.4 |
| 20260507031509 | 13 | 97 | 11.3 | 19.3 | 0.00 | 0.00 | 0.00 | 40 | 981.2 |
| 20260507030009 | 13 | 52 | 14.5 | 16.1 | 0.00 | 0.00 | 0.00 | 40 | 981.2 |
| 20260507024508 | 14 | 56 | 20.9 | 29.0 | 0.00 | 0.00 | 0.00 | 38 | 980.9 |
| 20260507023008 | 15 | 75 | 27.4 | 32.2 | 0.00 | 0.00 | 0.00 | 35 | 980.7 |
| 20260507021507 | 16 | 16 | 12.9 | 20.9 | 0.00 | 0.00 | 0.00 | 34 | 980.5 |
| 20260507020007 | 16 | 50 | 17.7 | 27.4 | 0.00 | 0.00 | 0.00 | 35 | 980.3 |
| 20260507014515 | 17 | 33 | 20.9 | 25.7 | 0.00 | 0.00 | 0.00 | 34 | 980.2 |
| 20260507013020 | 17 | 52 | 20.9 | 27.4 | 0.00 | 0.00 | 0.00 | 33 | 980.2 |
| 20260507011506 | 17 | 23 | 14.5 | 20.9 | 0.00 | 0.00 | 0.00 | 34 | 980.2 |
| 20260507010004 | 17 | 18 | 16.1 | 25.7 | 0.00 | 0.00 | 0.00 | 34 | 980.2 |
| 20260507004504 | 17 | 23 | 16.1 | 27.4 | 0.00 | 0.00 | 0.00 | 35 | 980.3 |
| 20260507003003 | 17 | 19 | 22.5 | 33.8 | 0.00 | 0.00 | 0.00 | 35 | 980.3 |
| 20260507001503 | 17 | 349 | 24.1 | 33.8 | 0.00 | 0.00 | 0.00 | 32 | 980.3 |
| 20260507000005 | 18 | 333 | 12.9 | 19.3 | 0.00 | 0.00 | 0.00 | 29 | 979.9 |
| 20260506234502 | 18 | 46 | 6.4 | 22.5 | 0.00 | 0.00 | 0.00 | 29 | 979.8 |
| 20260506233109 | 18 | 122 | 6.4 | 11.3 | 0.00 | 0.00 | 0.00 | 31 | 979.5 |
| 20260506231559 | 18 | 152 | 4.8 | 33.8 | 0.00 | 0.00 | 0.00 | 30 | 979.8 |
| 20260506230058 | 18 | 50 | 16.1 | 33.8 | 0.00 | 0.00 | 0.00 | 31 | 979.8 |
| 20260506224557 | 18 | 64 | 16.1 | 22.5 | 0.00 | 0.00 | 0.00 | 28 | 980.2 |
| 20260506223115 | 19 | 44 | 22.5 | 29.0 | 0.00 | 0.00 | 0.00 | 27 | 980.1 |
| 20260506221559 | 19 | 47 | 11.3 | 24.1 | 0.00 | 0.00 | 0.00 | 28 | 980.3 |
| 20260506220055 | 19 | 330 | 12.9 | 29.0 | 0.00 | 0.00 | 0.00 | 27 | 980.5 |
| 20260506214555 | 19 | 46 | 20.9 | 29.0 | 0.00 | 0.00 | 0.00 | 26 | 980.7 |
| 20260506213047 | 18 | 64 | 14.5 | 19.3 | 0.00 | 0.00 | 0.00 | 27 | 980.9 |
| 20260506211547 | 18 | 56 | 14.5 | 19.3 | 0.00 | 0.00 | 0.00 | 27 | 981.1 |
| 20260506210045 | 18 | 81 | 9.7 | 16.1 | 0.00 | 0.00 | 0.00 | 27 | 981.2 |
| 20260506204542 | 19 | 346 | 0.0 | 16.1 | 0.00 | 0.00 | 0.00 | 27 | 981.3 |
| 20260506203045 | 18 | 70 | 12.9 | 17.7 | 0.00 | 0.00 | 0.00 | 28 | 981.4 |
| 20260506201540 | 18 | 345 | 8.0 | 20.9 | 0.00 | 0.00 | 0.00 | 27 | 981.6 |
| 20260506200056 | 18 | 77 | 17.7 | 24.1 | 0.00 | 0.00 | 0.00 | 26 | 981.6 |
| 20260506194539 | 18 | 62 | 20.9 | 27.4 | 0.00 | 0.00 | 0.00 | 28 | 981.7 |
| 20260506193036 | 18 | 339 | 17.7 | 30.6 | 0.00 | 0.00 | 0.00 | 26 | 981.9 |
| 20260506191534 | 19 | 345 | 8.0 | 20.9 | 0.00 | 0.00 | 0.00 | 28 | 982.1 |
| 20260506190031 | 18 | 226 | 3.2 | 16.1 | 0.00 | 0.00 | 0.00 | 27 | 982.4 |
| 20260506184528 | 18 | 69 | 8.0 | 22.5 | 0.00 | 0.00 | 0.00 | 28 | 982.6 |
| 20260506183025 | 17 | 169 | 0.0 | 14.5 | 0.00 | 0.00 | 0.00 | 29 | 982.9 |
| 20260506181529 | 17 | 211 | 4.8 | 12.9 | 0.00 | 0.00 | 0.00 | 30 | 983.2 |
| 20260506180028 | 16 | 228 | 3.2 | 17.7 | 0.00 | 0.00 | 0.00 | 31 | 983.4 |
| 20260506174514 | 16 | 224 | 3.2 | 17.7 | 0.00 | 0.00 | 0.00 | 32 | 983.6 |
| 20260506173011 | 15 | 170 | 8.0 | 14.5 | 0.00 | 0.00 | 0.00 | 33 | 983.9 |
| 20260506171508 | 13 | 195 | 1.6 | 16.1 | 0.00 | 0.00 | 0.00 | 35 | 984.2 |
| 20260506170007 | 12 | 248 | 1.6 | 11.3 | 0.00 | 0.00 | 0.00 | 36 | 984.6 |
| 20260506164601 | 12 | 215 | 6.4 | 14.5 | 0.00 | 0.00 | 0.00 | 37 | 984.8 |
| 20260506163106 | 11 | 246 | 4.8 | 11.3 | 0.00 | 0.00 | 0.00 | 38 | 985.0 |
| 20260506161557 | 10 | 206 | 4.8 | 14.5 | 0.00 | 0.00 | 0.00 | 40 | 985.1 |
| 20260506154546 | 9 | 185 | 3.2 | 9.7 | 0.00 | 0.00 | 0.00 | 42 | 985.6 |
| 20260506153044 | 8 | 242 | 4.8 | 11.3 | 0.00 | 0.00 | 0.00 | 44 | 985.6 |
| 20260506151540 | 7 | 225 | 4.8 | 11.3 | 0.00 | 0.00 | 0.00 | 45 | 985.8 |
| 20260506150037 | 7 | 197 | 0.0 | 9.7 | 0.00 | 0.00 | 0.00 | 46 | 986.0 |
| 20260506144533 | 7 | 224 | 0.0 | 4.8 | 0.00 | 0.00 | 0.00 | 46 | 986.2 |
| 20260506143030 | 6 | 222 | 0.0 | 1.6 | 0.00 | 0.00 | 0.00 | 48 | 986.3 |
| 20260506141526 | 6 | 212 | 0.0 | 1.6 | 0.00 | 0.00 | 0.00 | 50 | 986.5 |
| 20260506140022 | 4 | 257 | 0.0 | 1.6 | 0.00 | 0.00 | 0.00 | 53 | 986.7 |
| 20260506134534 | 3 | 266 | 0.0 | 6.4 | 0.00 | 0.00 | 0.00 | 56 | 986.8 |
| 20260506133014 | 2 | 271 | 0.0 | 1.6 | 0.00 | 0.00 | 0.00 | 59 | 986.9 |
| 20260506131511 | 1 | 223 | 0.0 | 0.0 | 0.00 | 0.00 | 0.00 | 60 | 987.0 |
| 20260506130007 | 1 | 242 | 0.0 | 0.0 | 0.00 | 0.00 | 0.00 | 61 | 987.0 |
| 20260506124502 | 1 | 255 | 0.0 | 0.0 | 0.00 | 0.00 | 0.00 | 60 | 987.1 |
| 20260506123058 | 0 | 256 | 0.0 | 0.0 | 0.00 | 0.00 | 0.00 | 60 | 987.2 |
| 20260506121606 | 0 | 210 | 0.0 | 0.0 | 0.00 | 0.00 | 0.00 | 61 | 987.2 |
| 20260506120056 | 0 | 150 | 0.0 | 0.0 | 0.00 | 0.00 | 0.00 | 61 | 987.3 |
| 20260506114555 | 0 | 160 | 0.0 | 0.0 | 0.00 | 0.00 | 0.00 | 60 | 987.6 |
| 20260506113052 | 0 | 201 | 0.0 | 0.0 | 0.00 | 0.00 | 0.00 | 61 | 987.8 |
| 20260506111608 | 0 | 200 | 0.0 | 0.0 | 0.00 | 0.00 | 0.00 | 61 | 988.0 |
| 20260506110052 | 0 | 179 | 0.0 | 6.4 | 0.00 | 0.00 | 0.00 | 62 | 988.1 |
| 20260506104547 | 0 | 186 | 4.8 | 9.7 | 0.00 | 0.00 | 0.00 | 61 | 988.3 |
| 20260506103045 | 0 | 165 | 4.8 | 11.3 | 0.00 | 0.00 | 0.00 | 61 | 988.4 |
| 20260506101542 | 0 | 195 | 4.8 | 12.9 | 0.00 | 0.00 | 0.00 | 60 | 988.6 |
| 20260506100041 | 0 | 157 | 4.8 | 12.9 | 0.00 | 0.00 | 0.00 | 58 | 988.8 |
| 20260506094536 | 0 | 156 | 8.0 | 16.1 | 0.00 | 0.00 | 0.00 | 57 | 989.0 |
| 20260506093033 | 0 | 176 | 11.3 | 22.5 | 0.00 | 0.00 | 0.00 | 57 | 989.3 |
| 20260506091532 | 0 | 163 | 9.7 | 27.4 | 0.00 | 0.00 | 0.00 | 56 | 989.4 |
| 20260506090029 | 0 | 173 | 12.9 | 29.0 | 0.00 | 0.00 | 0.00 | 56 | 989.4 |
| 20260506084527 | 0 | 156 | 8.0 | 20.9 | 0.00 | 0.00 | 0.00 | 56 | 989.6 |
| 20260506083022 | 1 | 165 | 12.9 | 22.5 | 0.00 | 0.00 | 0.00 | 54 | 989.7 |
| 20260506081523 | 1 | 155 | 8.0 | 24.1 | 0.00 | 0.00 | 0.00 | 54 | 989.9 |
| 20260506073012 | 1 | 167 | 11.3 | 20.9 | 0.00 | 0.00 | 0.00 | 53 | 990.4 |
| 20260506071510 | 1 | 167 | 11.3 | 20.9 | 0.00 | 0.00 | 0.00 | 52 | 990.7 |
| 20260506061557 | 2 | 148 | 6.4 | 17.7 | 0.00 | 0.00 | 0.00 | 48 | 991.3 |
| 20260506044546 | 3 | 134 | 9.7 | 16.1 | 0.00 | 0.00 | 0.00 | 45 | 992.0 |
| 20260506043046 | 3 | 108 | 12.9 | 19.3 | 0.00 | 0.00 | 0.00 | 45 | 992.0 |
| 20260506041545 | 4 | 119 | 12.9 | 19.3 | 0.00 | 0.00 | 0.00 | 45 | 992.1 |